Tracking 30692 objects as of 16-Jun-2025
HD Live streaming from Space Station
objects crossing your sky now

STARLINK-5930

Track STARLINK-5930 now!
10-day predictions
STARLINK-5930 is classified as:


NORAD ID: 55928
Int'l Code: 2023-037Q
Perigee: 576.5 km
Apogee: 581.8 km
Inclination: 70.0 °
Period: 96.1 minutes
Semi major axis: 6950 km
RCS: Unknown
Launch date: March 17, 2023
Source: United States (US)
Launch site: AIR FORCE WESTERN TEST RANGE (AFWTR)
Your satellite tracking list
Your tracking list is empty




NASA's NSSDC Master Catalog

Two Line Element Set (TLE):
1 55928U 23037Q   25166.53440505 -.00000551  00000-0 -38382-4 0  9991
2 55928  69.9990 257.8933 0003803 270.7392  89.3332 14.98335404123470
Source of the keplerian elements: AFSPC